Theta_e
316 315 314 312 311 313 314 315 316 316 315 314 313 313 313 314 314 314 313 313 313 313 313 313 313 312 311 310 312 312 314 316 315 321 325 326 325 330 331 328 329 338 349 350 347 347 348 353 354 355 355 359 367 365 360 366 372 372 378 370 360 369 369 365 375 371 365 363 361 358 360 368 363 360 359 358 360 359 358 358 356 354 355 355 354 353 352 353
315 315 313 311 311 312 314 315 316 317 315 314 313 312 313 313 314 313 313 313 313 313 313 313 313 311 310 310 312 313 315 315 321 328 326 321 329 331 328 328 327 334 345 348 349 345 352 360 356 357 363 366 365 360 364 364 368 376 376 366 364 374 371 372 376 373 372 364 362 361 360 364 363 363 359 363 368 360 361 360 357 358 356 355 354 353 353 353
315 315 314 311 310 312 313 316 317 316 315 314 313 312 313 313 314 315 316 316 314 313 313 313 312 311 310 310 312 314 315 320 332 339 323 318 331 330 328 329 325 328 335 341 346 345 352 360 355 361 366 367 361 359 367 364 368 374 367 369 376 376 370 377 381 377 375 366 366 363 359 364 364 365 361 367 370 360 365 363 360 362 358 356 353 353 353 353
315 314 313 310 310 313 315 316 317 316 314 313 312 313 313 314 318 319 319 318 315 313 312 313 311 310 310 311 314 314 317 327 339 337 322 322 330 330 330 329 324 324 328 333 338 338 344 353 354 360 364 366 362 361 367 363 369 371 365 377 381 374 368 374 383 379 374 370 370 365 362 367 363 364 364 368 370 365 368 364 361 362 358 356 353 353 352 352
315 312 311 310 313 315 315 317 317 315 313 312 313 315 317 319 321 321 320 319 316 313 313 312 311 310 311 312 313 314 321 333 333 330 326 326 327 329 331 328 324 321 326 328 329 330 334 346 355 357 361 367 364 364 368 361 365 368 368 379 378 374 368 372 382 379 375 371 368 369 372 370 363 367 368 366 370 370 369 363 360 358 356 355 354 353 352 352
313 311 311 312 315 315 316 317 315 313 312 314 316 318 321 322 322 320 319 318 315 312 312 312 310 310 311 314 317 318 325 331 327 328 328 328 327 329 330 326 322 320 325 327 327 332 333 343 358 362 367 369 362 364 368 358 360 368 368 371 377 379 372 375 380 378 377 374 375 374 372 370 366 369 370 367 371 375 370 359 357 357 355 355 353 353 352 353
312 314 313 314 315 316 317 316 313 313 315 316 319 321 322 322 321 319 318 316 313 312 312 311 310 310 312 319 325 326 331 330 326 329 328 327 326 328 328 323 320 321 326 329 332 336 334 344 358 362 365 367 360 360 365 358 359 372 375 369 375 382 377 378 379 379 379 381 384 373 367 373 372 367 367 368 370 375 372 358 355 356 357 355 354 353 352 353
315 316 314 315 316 316 316 314 313 314 317 319 321 323 322 323 320 318 316 314 312 312 312 309 310 312 314 323 330 332 336 335 331 332 329 325 323 324 322 320 320 321 326 329 332 334 334 341 351 354 357 360 358 355 360 364 360 366 376 374 378 381 382 382 375 378 380 381 383 374 372 380 377 370 367 368 371 373 365 355 355 356 356 356 354 354 353 353
317 315 315 316 316 315 314 313 314 316 318 321 322 322 323 322 320 316 314 313 311 312 311 310 311 312 316 326 334 337 338 336 334 333 329 324 322 321 319 321 323 322 325 328 327 331 336 338 344 350 350 348 351 354 356 364 363 361 371 378 380 380 383 379 375 379 380 376 376 372 375 380 375 368 366 369 375 373 360 353 356 356 356 356 355 355 354 354
317 316 316 316 316 314 313 314 315 318 320 322 323 322 322 321 318 314 312 312 311 311 309 309 312 314 320 330 338 340 334 332 335 335 332 327 320 319 322 325 327 325 325 328 329 331 336 338 338 338 340 338 338 345 352 359 362 356 363 375 380 379 379 377 375 379 379 375 376 374 375 381 374 365 372 377 372 369 363 361 358 354 357 357 356 355 355 355
318 317 317 317 315 313 313 314 316 319 322 322 322 321 321 319 316 312 312 311 311 310 309 310 313 318 324 332 340 341 332 329 337 336 333 328 320 322 327 328 329 327 326 330 333 335 335 335 333 331 335 337 332 335 345 353 356 353 360 371 375 373 373 373 377 378 375 372 378 380 376 379 371 364 383 384 366 365 368 371 365 357 356 356 356 357 355 356
319 318 318 316 314 313 313 315 318 321 322 321 321 320 320 318 313 311 311 310 310 310 310 311 316 321 328 336 338 335 327 328 336 335 333 330 325 326 330 331 332 334 332 333 335 335 335 332 331 333 335 335 332 335 342 346 349 354 361 370 370 366 366 372 380 381 371 369 379 379 368 373 374 371 384 379 363 366 370 373 371 364 360 356 358 357 355 356
319 318 318 315 313 314 315 316 319 321 321 320 320 320 319 315 312 311 311 311 310 309 310 314 317 321 330 340 334 326 323 326 331 334 334 332 329 328 329 332 333 337 335 335 336 334 334 331 331 333 333 333 332 334 338 334 342 358 362 368 369 358 365 375 378 380 371 371 382 370 358 370 379 375 378 369 362 368 370 369 368 368 367 363 362 360 359 358
320 319 316 314 314 315 316 318 320 320 320 318 319 319 316 313 311 310 310 310 310 310 312 314 316 323 335 339 328 327 327 325 325 331 331 329 330 328 327 330 331 335 334 334 336 333 332 330 330 331 331 332 331 332 332 329 347 369 358 361 368 351 363 382 375 379 373 370 381 363 354 371 379 376 374 365 363 367 367 365 365 366 367 367 366 364 364 361
320 319 316 315 315 315 317 318 320 320 319 318 319 317 313 311 310 311 310 309 311 312 314 319 320 324 339 340 329 328 328 324 322 325 326 326 330 330 330 330 330 332 334 335 334 333 331 329 329 331 331 331 331 329 332 335 351 368 348 348 360 348 360 382 371 376 376 371 376 362 360 375 373 374 371 363 364 365 365 365 364 365 367 367 366 364 365 363
320 318 316 316 316 316 317 318 320 319 318 319 318 315 311 310 310 310 310 311 313 312 317 328 326 325 338 340 331 328 324 322 321 322 325 325 327 329 330 331 332 333 335 334 332 331 330 328 330 331 331 330 329 329 333 334 340 358 353 345 353 347 353 369 368 374 377 374 373 365 368 373 368 370 367 361 363 363 366 367 365 366 367 366 364 362 363 362
320 318 316 317 316 316 316 319 320 318 319 319 316 313 310 311 311 310 315 318 317 316 319 326 327 328 337 336 332 329 323 321 320 321 324 324 326 326 328 331 332 332 332 331 330 330 328 329 329 329 331 329 330 333 327 323 328 345 353 346 354 356 351 358 365 369 373 375 373 369 374 374 369 370 365 361 361 362 366 365 364 366 364 364 363 361 361 360
320 318 317 318 316 315 317 319 319 318 318 316 313 312 313 315 312 310 319 325 324 322 322 326 328 328 331 334 336 331 324 322 321 322 324 325 325 326 326 328 330 328 327 327 326 328 326 328 329 329 330 328 330 332 322 322 330 338 343 340 341 345 348 357 361 364 372 373 371 371 372 373 369 366 363 362 359 361 364 361 362 363 362 364 364 362 361 359
319 318 318 317 315 316 319 319 318 317 317 315 311 313 320 323 321 318 321 326 332 336 335 337 337 329 325 333 335 328 324 324 323 324 324 326 325 326 326 325 326 326 323 323 325 327 327 327 328 325 327 326 328 331 327 329 333 337 345 340 329 327 337 359 364 359 368 370 370 373 370 371 368 363 363 361 360 361 362 362 362 362 361 363 364 362 361 360
320 319 318 315 315 317 319 319 317 315 315 314 311 319 332 333 332 333 329 330 338 342 340 339 339 334 330 330 328 326 325 324 324 326 325 325 325 324 326 324 325 325 324 324 323 325 327 326 326 325 327 329 328 328 329 331 330 331 335 331 327 323 327 353 368 361 366 367 366 369 369 368 367 364 361 359 361 363 362 363 364 362 361 362 363 361 359 359
320 319 317 315 316 318 319 317 314 313 314 312 311 328 345 339 334 334 332 335 334 330 333 334 334 333 332 330 327 325 324 324 325 325 325 326 325 324 325 324 325 325 326 325 323 325 326 324 325 326 328 329 328 328 328 329 329 330 327 323 325 324 325 345 362 361 366 364 361 366 367 367 366 362 360 359 360 361 362 363 362 360 361 361 361 360 358 359
319 318 316 315 317 319 317 314 313 312 313 311 313 328 338 334 332 330 329 334 332 327 330 330 329 330 330 329 329 326 324 326 325 325 326 324 324 326 326 324 324 327 325 325 323 324 324 323 325 326 326 327 328 329 328 329 328 328 327 322 321 324 330 342 357 363 361 358 360 366 364 364 365 360 358 359 359 358 357 361 361 359 361 361 361 360 358 358
319 318 316 316 318 318 315 312 313 312 312 312 313 321 328 327 330 329 329 334 334 332 332 331 331 330 330 328 328 327 325 326 326 327 326 324 325 326 326 325 325 326 324 324 325 320 319 323 327 326 327 328 328 330 329 329 328 326 325 320 320 324 324 328 346 363 361 360 362 359 356 363 364 356 357 358 357 359 357 358 360 358 359 361 359 360 358 357
319 317 316 317 317 317 314 311 312 314 315 314 313 320 326 327 329 327 330 336 336 334 333 333 332 330 330 327 326 326 327 327 327 328 326 324 327 325 325 327 326 326 325 326 326 321 321 327 328 328 329 329 328 329 330 325 324 327 328 323 322 325 323 322 339 356 355 352 355 347 344 357 365 356 358 358 356 360 359 360 362 359 358 359 359 358 359 357
319 317 316 317 318 316 312 312 315 319 321 318 319 326 329 327 327 327 332 338 339 338 333 331 330 328 329 327 326 327 328 329 327 326 326 325 325 326 327 326 324 326 326 326 324 323 325 326 328 329 330 329 327 330 330 326 321 323 329 329 324 326 325 324 337 345 334 330 345 339 323 335 362 361 358 359 358 359 360 361 363 363 361 361 361 360 360 358
318 317 315 317 318 314 315 321 320 322 326 324 326 331 329 330 329 328 336 342 338 337 329 327 328 328 327 327 327 328 330 331 328 325 325 325 325 326 326 327 327 326 327 328 328 327 327 328 329 329 331 330 328 327 329 327 321 318 328 329 326 327 325 325 330 329 322 324 342 337 319 326 351 359 358 359 358 357 357 358 360 364 365 363 362 361 360 358
318 317 316 318 318 315 324 333 323 322 330 329 330 332 330 333 330 330 339 337 332 332 326 326 326 327 328 327 327 332 330 330 327 325 326 326 326 326 326 328 328 326 328 328 325 327 330 329 329 330 331 328 327 326 329 330 321 317 328 329 328 331 325 325 323 320 325 329 333 336 335 335 338 349 363 363 358 357 357 357 359 365 366 361 362 360 359 358
317 317 316 318 318 317 323 326 319 323 331 330 331 331 331 332 331 335 339 328 327 327 326 326 325 327 328 327 328 333 332 328 328 327 326 325 326 327 326 327 329 327 330 326 319 325 331 328 327 332 332 329 327 328 330 329 322 324 333 327 330 329 325 329 322 319 328 325 322 334 339 332 330 346 367 367 357 358 364 364 362 366 366 363 362 360 359 358
316 316 316 318 319 319 319 319 319 326 330 331 331 331 331 331 334 343 340 330 326 324 330 327 327 329 328 328 328 329 330 328 330 331 326 326 327 327 328 329 328 326 328 325 322 327 328 328 330 332 332 330 329 333 331 327 326 330 329 327 330 327 326 328 319 325 332 321 321 334 332 326 328 339 355 359 355 359 369 371 366 367 365 364 364 361 359 358
316 316 317 317 319 320 322 322 324 328 330 328 329 330 331 335 342 340 334 333 327 325 331 327 327 330 328 330 329 328 327 328 332 331 328 326 327 327 328 329 327 327 330 328 327 327 325 328 334 333 335 332 330 333 330 328 329 328 328 329 329 328 337 341 337 339 331 321 329 335 327 328 330 335 346 352 355 360 365 368 366 362 361 362 363 361 359 358
316 316 317 318 320 323 326 329 328 327 326 325 328 331 334 343 346 334 330 334 327 326 329 328 330 330 329 330 330 330 328 328 330 328 327 328 327 326 327 329 328 330 333 329 326 329 329 328 331 333 336 333 330 331 331 332 330 328 333 331 323 327 338 342 344 339 322 321 336 335 329 335 334 339 348 350 353 354 355 361 361 356 356 359 360 358 357 356
317 317 318 318 320 322 327 332 329 325 324 325 327 335 342 341 332 328 333 330 324 328 329 329 331 329 329 330 329 329 329 329 330 329 330 328 327 329 327 330 331 324 322 324 324 327 331 328 329 331 335 333 328 329 331 334 333 329 333 328 322 326 327 326 330 328 319 322 330 329 332 338 338 341 348 351 352 350 351 354 354 354 354 356 356 354 353 353
317 318 318 318 320 320 325 328 326 325 323 324 331 341 347 337 328 330 334 327 323 328 330 331 329 328 329 327 328 330 328 330 330 329 331 329 328 330 328 330 333 325 320 321 320 321 326 331 331 327 331 333 329 328 324 327 331 328 325 321 322 324 320 319 323 324 324 325 322 327 333 334 338 344 348 352 350 349 352 351 352 354 353 354 354 352 352 352
318 319 318 319 320 321 324 324 324 326 321 325 341 346 337 331 335 339 333 330 330 328 328 329 328 329 329 328 329 329 327 328 329 329 330 328 326 328 332 331 331 332 330 326 322 319 318 322 331 327 326 332 330 329 328 326 331 332 327 325 322 320 317 319 323 321 323 324 321 329 334 331 337 346 348 350 349 349 351 351 355 354 352 352 351 350 351 350
320 321 321 321 321 322 325 324 324 324 319 330 350 344 331 328 335 335 330 331 332 328 329 330 328 326 325 327 329 328 328 326 327 331 328 326 325 327 335 333 330 335 336 328 322 321 316 318 331 329 326 331 329 331 334 330 331 336 333 325 321 324 323 323 326 324 322 324 324 329 335 336 343 350 349 349 349 350 352 352 355 355 353 353 351 351 350 349
322 324 324 326 324 323 324 324 325 322 323 342 350 338 336 336 334 333 331 331 330 329 329 329 329 325 320 326 329 327 329 327 327 331 326 329 331 331 335 334 332 334 336 332 325 321 317 319 330 330 325 330 328 330 333 327 329 334 327 321 325 331 330 323 326 329 325 324 325 329 336 339 342 348 350 350 349 350 353 354 354 355 356 355 351 350 349 349
322 324 325 327 326 326 324 324 325 322 328 349 351 343 346 340 336 337 334 331 329 329 329 321 323 324 317 319 325 328 329 327 327 327 323 329 330 330 335 333 331 332 335 336 328 323 321 319 329 331 325 329 329 331 334 327 328 328 319 324 332 332 335 328 325 329 328 324 326 331 337 339 339 344 349 352 353 352 355 356 353 353 356 355 352 349 348 349
320 323 326 328 329 330 329 326 324 326 333 348 354 356 353 341 339 337 329 328 327 329 328 318 321 326 319 317 323 330 329 322 324 326 322 328 330 330 333 333 331 328 330 333 331 329 325 318 327 333 326 329 332 331 331 328 329 326 323 331 329 320 324 324 322 325 324 323 325 330 339 343 340 344 348 352 354 354 358 359 355 354 357 356 352 349 349 349
322 327 333 332 329 330 330 327 327 330 338 347 350 350 344 338 339 333 328 329 328 328 328 321 323 327 324 322 323 329 329 321 324 327 322 328 332 331 331 332 331 328 327 332 331 331 329 319 322 335 331 327 334 332 324 324 330 329 327 332 330 325 322 319 322 324 321 324 324 323 337 348 349 352 352 352 354 354 355 359 357 357 357 355 352 351 350 350
326 331 337 333 329 330 329 327 330 335 342 349 349 341 336 335 334 330 329 329 327 328 327 324 326 325 326 327 326 328 329 326 326 326 324 328 330 330 330 331 331 326 326 331 330 331 338 326 320 333 336 326 328 328 324 325 328 328 325 322 323 328 325 321 324 321 320 327 326 321 330 346 358 362 357 354 354 351 352 355 356 356 355 353 352 352 351 350
330 333 337 335 332 331 328 330 335 341 344 348 345 337 335 337 332 328 328 327 327 327 325 324 327 325 325 328 327 326 328 330 328 327 329 331 331 331 330 329 329 325 326 334 334 330 336 333 324 327 329 323 326 330 328 330 330 328 326 321 321 322 321 320 322 322 325 327 325 325 331 344 360 360 356 359 356 352 351 353 354 354 354 353 353 351 351 350
336 339 337 334 333 331 332 337 340 343 344 343 341 336 337 340 333 327 327 326 327 326 325 325 326 327 328 327 328 326 327 329 328 328 330 332 333 333 332 329 327 326 332 336 333 329 336 340 329 324 328 327 327 329 326 327 332 331 328 327 328 326 321 318 318 323 330 328 330 337 338 348 364 357 354 358 357 353 352 353 354 354 352 353 353 351 350 349
343 344 336 332 332 331 335 343 344 341 341 340 338 335 337 336 331 328 329 329 328 327 327 327 325 326 327 325 327 327 325 326 328 330 330 332 334 330 329 333 327 328 338 340 336 333 336 338 329 329 341 337 327 328 328 328 331 329 329 330 331 328 326 325 325 331 337 334 337 339 334 345 363 359 353 353 354 355 353 353 355 353 353 354 353 352 352 350
339 338 335 331 331 332 338 345 345 345 343 339 336 334 334 333 329 330 330 328 330 329 327 327 326 326 327 325 326 326 325 325 326 329 331 334 336 330 330 334 331 332 338 340 338 328 325 334 337 334 336 329 324 325 324 325 328 327 329 330 329 328 329 331 335 338 335 333 335 333 331 343 360 358 353 353 353 355 353 353 355 353 353 354 353 352 351 350
335 335 336 332 331 334 341 342 338 339 340 336 334 334 332 331 330 330 330 328 330 328 327 328 326 325 326 326 326 328 327 325 324 328 330 332 335 333 331 331 332 336 340 342 341 331 328 339 344 339 330 321 319 320 318 322 328 327 328 330 329 330 327 329 330 326 324 330 337 336 336 346 356 356 355 356 355 356 354 354 355 354 353 354 353 351 350 352
334 335 337 336 334 333 338 338 333 334 336 333 335 337 332 330 331 330 330 329 329 329 328 328 326 325 326 327 327 327 328 326 325 329 331 331 334 332 331 332 333 340 349 346 341 340 337 337 343 348 341 327 323 326 328 328 324 321 327 332 335 337 335 339 335 326 330 340 341 340 343 344 347 353 356 357 356 356 355 355 356 356 354 354 352 349 349 351
336 338 340 340 342 342 340 339 334 334 335 333 337 338 331 330 330 328 328 329 330 331 329 328 326 324 326 329 329 326 328 333 334 333 332 332 334 330 330 332 334 347 357 346 340 347 339 329 336 346 339 329 329 332 332 328 322 324 332 336 339 341 342 344 337 334 343 342 333 340 350 342 341 352 355 354 356 354 355 356 356 355 355 354 351 349 348 349
335 339 338 336 345 352 345 341 338 336 334 334 335 335 331 331 330 329 330 330 329 329 329 328 327 326 327 330 329 326 330 336 337 337 335 335 333 332 333 333 332 344 348 335 339 351 341 331 333 331 329 331 331 332 332 329 329 335 339 338 340 344 344 342 340 343 349 338 329 342 355 347 345 353 353 350 351 351 353 355 353 354 356 354 352 350 349 349
337 339 337 334 341 345 340 339 340 337 336 337 336 334 331 332 332 329 330 332 328 327 328 329 328 327 327 331 333 330 331 332 333 334 334 334 334 335 337 337 333 338 337 328 336 345 336 337 341 331 329 336 334 333 335 332 334 338 340 341 342 346 348 348 347 351 352 345 340 349 357 352 348 350 350 347 346 348 350 351 351 353 356 354 353 352 350 350
338 337 335 334 338 343 341 340 339 337 338 340 338 335 332 332 332 329 330 333 332 330 330 331 331 330 329 333 335 333 332 334 333 331 328 332 334 333 334 336 332 333 335 332 335 335 329 336 348 341 334 336 336 334 333 335 340 341 340 343 344 343 347 350 351 354 353 350 350 352 353 352 349 348 348 347 346 348 348 348 349 353 354 354 353 351 350 350
333 333 331 334 345 355 349 342 339 338 338 337 336 335 333 331 331 331 330 330 330 330 330 331 333 335 334 335 336 334 333 333 332 329 327 329 331 329 330 333 329 328 333 331 331 336 333 338 350 346 335 333 335 332 331 336 343 344 342 345 346 343 344 347 350 352 348 346 350 350 348 350 352 350 348 347 348 347 346 346 348 348 351 353 352 351 350 350
330 332 331 335 352 361 349 341 340 339 339 338 334 334 332 330 330 333 333 330 327 329 329 329 332 339 341 339 336 334 332 330 329 328 325 325 328 326 327 330 328 325 330 330 330 337 339 339 341 338 332 335 337 333 330 329 334 341 344 345 346 346 347 348 350 351 347 347 351 349 346 347 350 349 347 347 347 346 345 345 344 344 348 352 352 350 349 349
Wind_Speed
10 10 10 11 11 12 12 13 13 13 12 12 11 12 12 12 12 11 10 10 10 11 12 13 13 12 12 12 13 14 16 17 16 12 6 8 7 7 9 8 7 11 11 9 9 8 6 8 6 5 4 3 1 1 3 2 1 2 2 2 0 2 2 3 3 2 6 6 6 8 8 6 4 4 0 3 2 4 8 6 6 5 5 12 14 23 30 30
11 10 11 11 12 12 12 13 13 13 12 12 12 12 12 13 13 11 10 10 10 11 11 12 12 12 11 11 12 14 16 16 14 12 11 11 12 12 10 8 8 10 11 11 12 10 6 7 8 6 3 1 1 1 2 1 1 2 2 1 2 3 3 3 4 2 6 7 7 8 7 7 6 5 3 2 4 6 7 5 6 7 9 13 17 25 29 29
11 11 11 11 12 12 12 12 13 13 12 12 12 12 12 13 13 12 11 10 10 10 11 12 11 11 11 11 12 13 15 12 7 7 9 14 16 14 11 10 9 9 9 9 10 9 7 10 12 7 2 2 2 3 2 1 1 1 1 1 4 4 2 2 4 3 5 8 7 6 4 5 5 3 3 2 3 6 7 6 8 9 11 14 16 22 26 27
12 11 12 12 12 12 12 12 13 12 12 12 13 12 12 13 13 12 11 10 10 9 10 11 10 11 10 11 11 11 10 6 2 4 5 14 18 13 13 15 12 10 8 8 7 8 8 8 10 6 3 3 2 3 2 3 2 1 3 3 5 2 2 3 4 4 5 7 6 5 4 4 4 3 2 3 3 3 5 6 10 12 14 16 16 20 24 24
12 12 13 12 12 12 12 13 12 12 12 12 12 12 13 13 12 12 11 11 10 9 10 10 10 10 9 11 10 8 5 3 2 4 5 13 16 13 15 17 15 12 10 9 8 7 7 4 4 2 3 3 3 3 3 6 4 1 3 4 4 3 2 4 5 6 5 6 6 6 4 3 4 2 2 5 5 4 5 5 10 13 15 18 18 19 21 20
13 13 13 12 12 12 13 12 12 12 12 12 12 13 13 12 12 12 11 10 9 8 9 9 9 9 10 9 6 4 1 1 4 4 6 9 12 13 15 16 16 14 12 11 8 5 5 3 2 1 3 2 4 4 3 6 5 1 3 4 4 4 3 4 5 6 6 6 6 6 4 4 4 1 2 5 5 5 5 5 10 13 15 20 20 19 19 18
13 13 13 13 12 12 12 12 11 12 12 13 13 13 12 12 11 11 11 9 8 8 8 8 8 9 10 5 1 1 2 3 6 6 7 7 10 14 16 17 16 14 14 11 7 4 4 3 4 4 3 2 4 6 3 5 5 2 3 4 5 4 4 5 5 6 6 6 5 5 4 4 5 3 2 4 6 6 5 5 12 14 16 18 18 17 17 17
14 13 13 13 12 12 12 11 11 12 13 13 13 13 12 12 11 11 10 8 8 7 7 7 7 9 8 2 1 3 1 5 6 9 8 8 12 15 17 17 17 16 15 13 10 5 4 5 7 6 4 5 4 4 4 5 3 3 4 5 4 3 5 5 5 6 6 5 4 6 5 4 6 5 4 5 7 6 5 8 13 14 15 15 15 17 16 15
14 14 14 13 13 12 11 11 11 12 13 13 13 13 12 11 12 11 9 8 7 6 6 6 6 7 6 2 1 2 3 7 10 10 7 9 13 16 18 17 17 18 13 13 13 7 3 4 6 8 6 6 3 3 6 6 3 7 6 6 5 3 5 5 5 6 6 4 4 6 4 5 6 4 3 7 6 4 5 11 15 15 15 14 14 15 14 14
15 14 14 13 12 11 11 11 12 13 13 13 13 12 12 12 11 10 7 7 6 6 5 5 6 5 4 2 3 2 3 7 10 9 7 7 13 17 19 17 17 18 13 9 10 9 8 9 8 6 4 2 1 2 9 7 4 8 7 6 7 5 4 5 6 6 5 4 5 6 4 5 5 3 2 6 5 5 7 10 14 16 15 15 14 13 14 14
15 14 14 13 12 11 11 12 13 13 14 13 13 12 12 12 10 8 6 5 5 5 5 4 5 4 1 3 4 3 4 7 11 11 8 8 14 18 19 17 15 17 15 8 9 13 12 11 6 1 1 1 3 4 6 6 5 8 7 3 4 2 0 3 6 6 4 2 5 7 3 3 3 3 5 5 6 8 9 7 10 14 14 14 15 14 13 14
15 14 14 12 12 12 12 13 13 13 13 13 13 12 12 11 9 7 5 5 4 4 4 3 4 2 2 3 2 7 4 5 11 11 9 8 11 15 17 16 14 15 16 9 10 14 8 10 8 4 3 2 4 4 2 1 5 6 7 4 1 3 2 4 4 5 5 3 5 6 1 2 4 6 7 7 8 8 10 7 6 9 10 12 13 12 11 13
15 14 13 13 12 13 13 13 13 13 14 13 13 12 12 10 7 5 4 4 3 3 3 2 3 2 2 1 6 7 3 3 9 12 10 7 6 11 15 15 15 15 16 13 14 13 9 11 7 4 4 1 3 3 3 2 4 4 4 3 2 4 3 7 4 4 6 4 6 7 1 4 8 10 7 7 9 9 9 8 6 5 6 7 7 8 8 11
15 13 13 13 13 13 13 13 13 13 14 13 12 11 10 8 5 5 4 3 3 2 3 3 2 0 2 4 7 4 5 5 7 13 12 10 9 10 15 17 18 17 18 20 19 14 9 10 7 4 3 1 4 4 4 3 3 4 2 2 2 3 4 7 5 6 6 3 6 6 2 5 7 9 8 8 10 11 9 8 7 6 5 5 5 7 6 6
14 13 13 14 13 13 13 13 13 14 14 13 11 10 8 5 4 3 2 2 2 2 3 3 1 1 1 6 7 3 4 6 9 14 12 13 14 12 15 19 20 20 19 19 18 14 12 9 5 3 3 2 2 4 5 3 1 2 3 2 2 3 3 7 5 9 7 2 6 6 2 5 7 7 8 9 9 11 10 8 8 7 6 6 5 6 6 5
14 13 13 14 13 13 12 12 13 14 13 12 10 8 6 4 3 2 1 1 1 3 1 2 1 1 1 4 5 3 5 8 10 14 13 14 16 13 15 19 20 20 20 19 17 16 13 7 2 3 4 4 1 1 4 4 3 0 3 3 3 3 2 4 5 8 8 3 4 5 2 3 5 5 7 10 11 11 9 8 8 8 7 7 6 6 7 6
14 13 13 14 13 12 12 12 13 13 12 11 9 6 5 4 2 1 0 1 1 3 1 0 2 1 2 5 5 3 6 8 8 13 15 14 17 15 11 11 13 14 15 15 13 11 6 3 2 2 3 2 0 3 3 5 3 2 1 2 3 4 4 2 3 5 6 5 4 6 4 6 6 3 9 12 12 11 10 9 9 8 7 7 6 6 7 8
14 13 14 13 12 11 12 12 13 12 11 10 7 5 5 4 3 2 2 1 1 1 1 2 2 2 2 4 3 3 6 8 9 12 15 14 15 15 8 6 6 5 6 6 7 5 1 1 1 2 3 2 0 4 2 5 3 4 3 2 3 3 6 5 4 5 9 6 6 6 5 11 10 4 8 12 12 11 10 10 9 9 9 7 7 7 8 9
14 14 14 13 11 11 11 12 12 11 10 8 6 7 7 5 4 3 3 2 2 1 1 2 2 1 2 5 6 3 5 9 10 9 12 12 11 11 8 4 3 2 2 2 4 3 3 1 2 2 4 4 4 5 7 9 6 5 6 5 4 3 4 7 5 6 13 8 6 8 8 11 10 6 8 10 10 10 8 8 8 8 8 8 8 8 8 10
14 14 13 11 10 10 11 11 11 10 8 7 6 6 4 3 2 1 2 3 4 5 2 3 6 2 5 6 4 4 7 6 6 4 9 11 6 5 3 1 2 2 2 3 4 2 3 3 4 5 8 8 7 9 11 12 8 3 2 1 5 5 4 6 5 6 12 8 7 10 10 10 7 7 9 9 9 9 9 9 8 8 9 9 10 9 10 10
14 13 12 10 10 10 10 10 9 8 6 5 5 3 0 0 1 2 3 3 7 9 7 8 9 7 10 8 5 4 4 1 2 3 9 12 6 3 2 1 1 2 5 5 3 2 3 4 8 11 12 12 10 8 7 6 3 2 2 3 6 4 5 6 6 7 10 6 5 8 8 11 9 7 8 9 10 10 11 12 11 11 10 9 11 11 10 8
13 11 11 10 9 9 9 9 7 6 4 4 3 1 2 3 1 4 4 3 6 8 10 10 8 9 13 16 18 11 3 1 4 6 9 10 5 4 2 2 5 4 5 2 2 2 2 6 12 14 11 9 8 4 3 4 4 3 3 3 5 4 3 5 4 5 9 5 4 7 8 10 9 6 8 11 12 11 12 13 12 12 11 9 10 10 10 8
12 11 10 9 8 8 7 7 6 5 4 4 4 4 3 3 4 9 4 2 6 5 7 7 6 6 8 13 16 11 5 3 5 6 8 8 4 4 3 2 5 4 3 3 4 4 4 7 13 12 6 2 3 5 7 6 4 2 1 0 4 5 2 5 4 4 8 5 3 6 6 5 6 2 8 11 12 9 10 12 11 11 12 12 12 10 10 11
11 10 9 8 7 6 6 6 4 5 5 6 9 6 4 5 6 10 5 1 4 5 6 8 6 4 7 10 9 10 4 4 6 5 9 10 3 3 4 4 5 4 4 7 9 7 7 9 8 4 3 4 3 6 6 4 4 4 2 4 4 5 2 4 2 5 5 5 2 4 2 5 4 1 6 8 7 6 6 9 8 8 9 9 9 9 10 11
10 9 8 6 6 5 4 3 3 6 8 7 9 10 14 13 11 8 3 1 3 5 3 5 4 4 10 8 7 9 3 3 6 7 11 11 6 3 2 4 3 4 7 7 7 7 9 9 3 4 3 3 2 3 3 0 2 5 3 4 5 5 1 2 4 7 4 5 5 4 3 5 5 1 6 7 6 7 5 7 9 8 6 5 6 7 8 9
9 8 6 5 4 2 1 1 3 7 6 5 8 18 22 15 9 5 1 3 3 3 0 2 3 5 8 5 5 4 4 2 6 10 14 12 9 5 2 3 1 4 6 5 2 3 5 3 4 5 3 3 5 2 4 3 4 3 4 5 3 1 3 5 6 5 3 5 6 3 4 3 4 3 7 5 5 7 4 5 8 7 6 6 6 7 7 8
8 6 4 4 3 1 2 1 4 4 2 6 14 20 19 10 3 3 2 4 3 2 2 1 2 4 6 6 6 5 2 3 2 5 10 11 7 4 3 4 2 3 4 3 3 2 3 3 5 3 4 4 4 1 5 3 5 3 6 3 5 6 6 2 3 1 3 3 4 1 5 3 2 4 4 2 2 3 3 3 4 5 7 6 6 7 8 8
6 5 4 4 3 3 4 5 7 3 3 12 17 15 15 12 5 1 4 2 1 0 2 2 1 3 3 4 6 4 4 4 3 4 8 10 7 3 2 5 3 6 4 4 2 6 3 1 2 3 4 3 1 4 6 2 3 6 7 4 6 5 4 4 2 3 2 3 5 5 4 4 3 5 4 6 3 4 6 4 3 5 7 6 6 7 8 9
5 4 4 4 3 4 5 7 6 5 9 14 16 14 13 11 6 4 4 2 1 0 1 1 1 2 1 2 2 3 4 3 3 5 4 6 6 2 3 6 4 5 5 3 3 6 4 5 6 5 4 2 4 7 5 1 2 6 5 6 7 5 4 5 3 2 3 4 3 7 1 4 1 6 6 4 1 5 5 4 5 6 6 6 6 7 8 7
5 4 4 4 3 2 4 5 3 7 13 15 15 15 11 7 4 5 2 0 2 2 1 1 1 2 4 2 2 4 4 3 3 2 1 2 3 1 1 2 1 2 4 1 2 7 7 6 5 5 3 6 4 5 2 1 4 5 4 5 6 6 4 2 1 4 4 2 6 4 4 5 2 6 5 1 3 5 5 3 2 4 5 6 6 6 7 7
5 4 4 5 4 3 2 1 2 9 14 15 15 12 7 4 4 4 0 1 1 2 1 1 2 3 6 5 4 3 4 3 2 3 3 2 1 2 2 3 3 3 4 5 4 7 8 5 2 4 4 4 1 4 3 4 3 1 3 4 4 5 5 5 5 4 4 2 6 2 12 12 5 3 5 5 6 3 2 3 3 4 1 2 3 2 3 5
6 5 5 6 7 7 6 4 4 11 14 16 13 6 4 3 2 1 2 1 1 2 3 4 4 4 6 7 5 5 4 3 4 5 5 3 2 2 2 3 1 4 3 4 3 5 7 6 3 2 1 5 4 4 5 6 5 5 5 6 5 3 5 4 4 3 2 4 6 3 11 9 3 1 5 8 10 9 7 5 6 7 7 7 6 5 4 4
6 6 6 7 9 11 11 8 9 12 15 15 9 3 5 4 1 3 2 1 1 4 4 5 6 6 6 5 4 5 4 3 5 5 3 3 3 3 2 4 5 4 1 3 1 4 5 6 7 8 5 3 3 1 3 3 4 5 3 4 4 2 3 2 3 2 1 4 5 4 10 4 1 2 6 7 8 8 8 8 8 8 8 7 7 7 7 7
7 7 6 8 11 13 12 9 9 10 14 13 6 3 3 2 3 3 2 3 4 3 2 4 7 6 6 6 5 6 4 3 5 6 3 3 2 2 2 1 3 5 2 1 2 2 2 3 4 4 4 4 3 2 5 3 2 2 4 5 4 3 3 2 3 1 2 5 4 4 6 3 2 1 5 5 6 8 9 8 8 8 8 7 7 9 9 9
8 7 8 10 13 13 10 8 8 9 9 6 5 4 2 3 3 2 3 4 2 1 3 0 4 3 3 4 4 5 4 3 4 5 3 3 1 1 2 1 0 2 3 2 1 0 3 3 6 3 2 2 5 4 4 2 3 2 2 4 1 3 5 2 3 4 3 1 3 4 2 1 4 3 3 5 7 9 9 8 9 9 9 8 8 10 9 8
7 8 9 10 14 12 9 7 8 7 2 4 5 2 2 3 3 2 3 3 2 2 5 4 2 2 2 3 3 1 2 2 4 3 1 3 3 3 2 2 3 3 4 3 1 2 2 4 6 6 4 4 7 6 2 4 2 3 3 2 4 4 6 3 1 1 3 3 1 2 3 0 0 1 4 6 6 8 8 7 8 7 7 7 6 7 7 7
7 8 8 11 14 11 8 7 7 6 2 5 4 2 3 3 3 4 3 2 2 2 5 4 3 2 2 3 3 2 2 1 3 3 1 1 3 5 3 4 6 5 2 4 1 1 1 3 6 5 7 8 9 7 4 4 2 2 3 4 3 2 4 4 1 3 4 2 2 2 4 1 1 1 4 6 6 7 6 5 5 4 5 6 6 7 8 8
7 6 8 10 9 8 7 7 8 7 4 5 1 3 3 3 4 5 2 2 2 4 6 3 2 2 2 3 3 1 3 2 1 2 0 1 2 3 3 3 5 6 3 3 3 1 2 2 6 4 6 8 9 6 5 6 4 3 3 3 2 3 2 2 2 1 1 1 2 2 4 2 2 2 2 4 4 4 5 5 5 5 5 6 7 8 8 8
5 2 5 4 7 9 9 11 9 5 5 3 1 2 2 3 6 6 2 3 3 4 5 1 1 2 2 3 3 4 3 2 1 2 1 2 1 1 3 2 2 6 7 7 4 1 2 2 5 5 5 6 6 5 4 7 7 4 4 3 2 3 2 1 0 2 2 2 1 1 2 0 3 4 3 3 3 3 3 4 5 5 4 5 5 7 7 7
2 1 5 1 12 14 13 13 6 5 3 2 3 3 3 3 5 5 1 3 2 2 2 1 1 2 3 4 4 4 2 3 3 1 2 3 2 1 3 2 0 2 6 8 4 1 3 3 3 6 5 4 3 2 2 5 6 5 4 4 4 2 1 1 1 1 2 2 2 1 1 3 4 3 4 5 5 4 2 1 4 5 3 4 5 6 6 6
1 2 4 5 16 18 15 9 2 2 2 3 3 3 3 2 4 5 2 3 3 1 0 2 3 2 2 3 3 4 3 4 4 3 2 2 3 2 2 1 1 1 4 6 4 2 1 1 1 4 5 2 4 5 3 5 6 3 2 3 2 1 2 3 2 3 2 3 3 4 2 5 5 3 5 5 5 4 2 2 3 5 4 5 6 6 5 5
2 2 2 11 21 20 12 3 1 2 2 3 4 4 4 3 3 3 3 4 4 1 2 4 4 3 2 2 2 3 5 3 3 4 2 1 4 2 2 3 4 3 4 3 2 0 1 2 1 3 4 5 8 7 4 4 3 1 1 2 1 2 3 4 2 3 1 2 1 3 2 4 5 3 4 4 4 4 3 3 2 4 4 5 6 7 6 5
2 1 3 17 26 19 8 2 3 2 3 4 5 7 6 4 4 1 3 4 3 2 4 4 2 2 2 2 3 4 5 3 2 3 2 1 3 1 1 4 4 4 4 2 2 2 0 3 2 3 5 6 7 5 2 1 4 4 3 4 3 2 1 4 4 3 2 0 1 2 0 4 4 2 4 3 3 4 3 2 2 2 4 5 6 7 6 6
2 3 2 16 24 14 5 1 3 2 4 4 5 8 7 4 3 1 3 3 1 2 3 1 2 2 0 1 2 2 1 2 2 2 2 2 1 2 2 5 4 3 2 2 1 1 1 1 3 3 4 7 7 7 6 5 5 3 4 5 5 4 2 3 2 3 2 2 3 3 2 5 4 2 3 2 1 1 0 1 1 2 3 5 6 6 6 7
2 2 0 7 12 6 2 3 2 2 5 5 5 8 7 4 1 2 4 3 1 3 3 1 2 2 1 2 3 2 1 2 1 2 2 2 0 2 1 5 5 4 3 5 5 3 1 1 3 5 2 1 2 2 3 4 4 3 5 6 7 6 4 1 1 3 1 2 2 4 3 4 4 4 4 4 3 3 4 3 2 3 3 5 6 5 6 6
1 1 2 1 2 1 2 3 2 3 5 3 3 6 4 2 0 3 4 3 1 3 3 1 1 4 4 4 4 4 5 2 0 2 3 2 1 2 1 4 5 3 5 7 6 4 3 2 2 6 6 5 5 6 5 3 4 5 6 8 7 5 4 4 3 2 2 1 3 1 4 1 3 4 4 5 4 4 5 4 4 4 3 5 5 5 6 6
2 1 2 2 2 2 3 4 2 4 5 2 1 4 3 1 1 3 4 1 1 3 3 1 2 3 2 4 3 3 5 6 4 4 3 2 0 2 3 5 4 2 5 6 4 4 4 2 1 5 5 7 8 7 7 4 3 3 6 8 7 7 9 9 5 1 2 3 2 5 3 2 2 4 4 5 5 5 4 4 5 5 4 5 5 6 7 8
2 1 2 3 1 1 2 5 5 7 9 6 4 5 4 1 2 1 2 0 2 3 3 2 4 3 5 5 3 1 4 5 5 4 3 2 2 4 5 4 2 2 2 3 2 4 5 1 3 3 3 6 5 5 7 4 2 5 7 7 8 9 10 9 4 2 4 4 3 5 1 3 3 4 4 5 5 4 3 4 5 5 4 5 6 7 8 9
3 2 3 4 1 2 3 7 8 10 10 7 4 4 4 3 3 2 1 3 2 3 4 3 5 4 4 5 5 2 2 1 1 2 2 3 4 4 3 3 4 5 4 3 1 2 4 1 4 1 1 5 5 6 7 4 5 7 7 7 7 8 8 7 4 3 5 4 4 3 4 3 2 3 4 5 4 4 4 4 5 6 5 5 6 7 8 9
2 2 3 3 3 4 4 5 6 7 7 2 1 4 3 2 3 1 3 5 2 2 3 4 5 6 6 6 8 4 1 3 3 1 2 2 3 2 1 1 2 5 5 3 1 2 2 2 4 2 3 5 6 6 6 6 8 8 7 7 7 7 6 5 3 3 3 1 3 3 4 1 3 4 4 5 4 5 5 6 6 6 6 5 6 7 8 9
5 6 5 2 3 4 3 4 5 4 5 5 4 6 3 2 3 3 4 5 5 3 2 4 6 7 7 8 8 5 2 4 6 4 4 4 2 2 1 2 1 3 3 1 1 2 2 2 3 5 4 4 5 6 5 6 10 9 7 6 5 4 3 2 2 2 1 1 4 5 2 3 4 4 4 5 5 6 6 7 6 6 6 5 6 7 8 9
9 7 5 1 3 4 4 5 5 3 3 4 8 9 3 2 3 4 5 4 6 7 5 6 8 6 5 6 6 4 2 2 3 3 4 4 4 4 4 4 3 1 2 1 0 1 2 2 1 2 2 3 6 6 5 3 5 3 3 3 3 3 3 2 2 3 1 1 1 1 2 4 4 4 5 5 5 6 6 6 6 7 6 5 5 7 8 8
Wind_Direction
332 328 322 317 315 316 317 319 320 323 327 327 327 324 323 325 323 323 322 318 314 310 305 305 309 317 326 326 325 323 320 320 320 315 267 214 185 170 172 171 150 153 162 171 192 195 193 209 197 147 136 139 135 169 135 129 118 75 83 110 259 189 187 178 166 151 144 160 182 198 203 154 148 217 211 118 234 243 189 182 169 158 119 143 147 149 154 154
331 328 324 320 319 317 317 318 319 322 325 325 325 324 322 321 320 321 320 317 312 306 303 304 309 322 329 328 327 326 323 320 317 297 249 197 162 167 184 186 171 168 169 178 202 205 194 198 172 129 123 164 180 154 144 196 131 113 130 112 262 200 187 179 157 145 140 152 168 185 196 154 156 186 151 147 223 219 193 169 144 130 117 135 145 150 156 157
331 328 324 322 322 321 321 318 318 321 323 325 324 323 323 320 319 322 321 318 312 305 302 305 314 327 332 328 328 329 325 325 316 277 233 189 175 184 200 202 194 186 186 199 212 214 214 194 175 150 152 240 208 162 167 218 180 189 141 105 259 204 177 193 161 149 139 144 149 166 181 146 159 180 160 182 200 192 183 153 137 140 141 145 151 155 159 161
331 329 325 326 325 321 319 318 319 322 325 326 324 325 323 320 322 324 324 319 312 305 302 308 321 330 334 327 326 327 324 339 311 254 196 186 189 192 202 209 210 205 206 223 225 229 234 195 177 167 177 246 211 149 183 196 186 193 157 190 238 170 136 217 174 138 130 135 138 151 145 131 171 196 195 168 146 190 205 174 155 154 154 152 157 162 164 165
333 332 330 329 324 319 318 318 322 325 326 326 325 325 322 322 327 327 324 317 311 306 305 315 328 335 335 325 319 313 329 42 277 250 169 181 194 195 200 211 218 215 210 227 239 245 260 226 170 168 195 228 160 135 212 194 169 177 211 212 211 137 128 229 175 138 131 129 134 144 148 144 164 194 205 165 159 207 220 188 160 156 157 158 161 165 168 170
335 334 331 326 321 319 319 321 325 328 327 325 323 321 322 325 328 327 321 315 311 307 309 324 336 339 335 332 320 290 94 92 267 223 168 175 192 196 200 211 217 213 209 224 237 235 264 241 142 190 220 209 171 186 219 184 152 141 241 227 203 167 149 212 174 148 138 128 148 163 163 148 145 200 201 177 198 217 220 189 157 156 159 159 161 164 171 175
335 333 329 323 321 319 320 325 328 328 324 320 319 320 323 326 327 323 317 315 312 309 319 334 345 342 340 356 18 58 108 259 256 200 189 178 183 193 201 213 213 207 204 212 219 215 241 199 178 219 230 240 194 200 203 160 148 145 235 229 208 189 177 193 171 153 147 148 172 163 143 149 169 179 158 201 232 229 228 182 152 152 156 158 163 169 175 179
334 331 326 323 322 321 323 328 328 322 318 317 319 322 324 324 323 319 316 315 312 318 328 342 353 344 346 23 133 51 4 239 190 174 196 190 187 193 200 208 209 206 202 206 209 207 232 216 209 216 242 255 220 200 170 132 153 212 229 216 194 194 205 195 165 152 154 164 157 139 148 194 193 159 148 222 245 242 211 158 147 149 154 162 169 172 177 182
333 328 325 324 323 324 326 329 323 316 316 318 321 323 323 321 320 318 315 314 315 324 334 352 357 344 349 351 125 58 265 206 161 157 175 189 189 189 196 202 207 209 210 219 216 210 233 244 224 206 223 235 209 194 168 140 196 219 211 192 174 198 207 179 162 163 165 175 142 140 176 218 206 155 176 234 233 224 173 149 150 153 158 167 172 174 178 182
331 327 326 325 325 326 325 323 317 315 318 320 322 323 321 320 320 319 316 317 320 329 343 357 356 350 351 358 84 97 221 184 167 156 149 185 185 185 194 200 209 214 222 228 211 209 214 232 242 215 221 221 113 199 183 171 193 200 194 185 179 191 198 164 170 180 167 177 159 157 195 216 203 171 241 244 199 164 148 146 155 159 164 169 171 177 180 183
330 327 326 325 326 324 320 317 313 317 320 322 324 321 320 321 321 322 321 321 323 338 356 359 357 2 41 80 93 184 199 174 181 160 142 179 182 187 192 197 213 220 227 238 231 231 228 246 278 19 245 290 323 296 206 183 163 178 167 168 203 178 238 158 168 185 162 183 175 153 179 210 176 194 231 215 173 154 142 141 154 163 172 172 172 177 181 187
328 326 326 327 325 320 316 313 314 320 322 323 322 318 321 323 321 322 320 323 331 346 353 2 2 8 79 71 180 215 198 162 183 166 156 179 187 197 194 197 216 228 231 233 249 254 277 310 336 5 269 295 321 316 301 153 134 163 148 141 220 67 333 233 189 183 161 189 181 137 68 249 190 216 225 186 164 152 145 144 142 157 169 169 172 176 180 186
326 326 327 326 321 317 313 313 317 321 322 320 320 319 322 322 321 321 324 329 335 339 335 358 346 347 75 199 234 232 231 179 184 177 177 197 210 209 205 209 219 237 242 238 258 277 313 325 329 301 271 329 297 276 324 331 128 159 145 121 105 66 299 243 217 162 157 191 167 137 305 249 216 218 213 175 162 149 148 160 148 141 150 151 160 169 175 179
324 325 325 322 318 314 312 315 319 320 319 319 320 322 321 320 322 317 328 338 331 331 307 315 314 16 106 242 264 277 247 227 205 192 190 210 218 214 218 221 224 237 245 245 262 284 302 308 315 297 274 229 265 295 326 323 132 152 131 43 103 125 266 254 218 149 157 213 143 125 260 255 241 224 198 175 165 155 159 169 157 150 148 147 151 160 173 179
323 323 321 318 314 312 313 317 319 320 319 318 319 322 321 320 322 318 334 345 317 296 300 316 271 171 29 281 283 307 233 235 224 203 198 212 210 214 227 228 232 236 241 248 259 273 275 286 308 284 279 269 281 320 325 337 356 137 129 304 273 170 256 282 241 168 166 208 127 126 245 263 262 237 188 170 167 160 166 171 164 165 160 161 164 163 177 187
321 320 318 315 313 313 315 317 319 319 317 318 320 319 317 313 318 315 326 4 274 276 319 35 48 137 61 291 292 314 237 236 228 207 205 213 210 220 233 233 237 234 237 244 247 256 263 272 278 228 264 291 295 320 338 355 320 342 124 224 240 166 227 295 264 199 168 127 138 168 226 269 265 238 173 169 172 164 167 172 169 172 169 169 171 170 178 184
321 319 316 314 314 315 315 317 317 318 318 318 318 310 305 308 304 246 173 64 303 278 244 38 357 8 264 280 295 280 225 220 210 202 208 217 222 231 238 232 232 234 242 251 250 253 263 261 240 249 275 287 125 93 13 326 285 273 102 228 232 168 175 229 267 220 166 137 182 196 225 260 271 231 169 175 175 165 170 175 173 175 175 176 174 175 182 183
322 318 315 314 314 313 314 316 316 316 318 320 318 306 299 292 270 218 180 123 24 331 308 296 344 18 274 266 279 247 214 207 194 196 210 218 224 233 244 232 221 242 271 281 264 242 238 300 304 317 318 309 129 108 143 254 220 198 194 213 265 191 175 215 239 189 169 177 194 181 227 253 267 258 177 182 178 168 176 178 177 180 176 177 178 180 186 187
320 315 314 314 311 312 314 315 315 316 320 321 315 303 298 287 270 223 189 156 106 113 316 225 180 69 277 254 269 240 177 189 190 192 208 211 218 231 245 253 233 251 301 311 278 228 175 271 336 316 284 260 223 181 202 229 219 202 182 176 244 242 203 223 238 183 168 178 201 189 218 241 246 234 191 187 180 172 177 178 181 184 179 181 184 184 186 193
317 314 313 310 309 312 313 313 313 316 321 319 314 315 310 319 340 278 214 179 199 217 222 188 188 249 285 276 281 164 143 160 182 182 199 200 202 220 237 296 343 341 273 242 274 274 144 181 255 241 245 250 228 208 218 230 228 203 141 209 278 287 259 230 234 199 166 166 211 205 223 245 239 219 199 187 182 178 175 182 190 188 185 186 189 189 188 198
316 315 311 308 309 311 313 313 312 318 324 312 319 346 320 166 59 328 296 254 231 222 232 226 202 227 258 266 272 192 135 119 234 234 212 201 168 156 227 177 135 284 252 231 261 303 117 176 237 230 232 249 247 225 216 229 263 3 8 320 311 293 263 241 218 191 160 157 224 213 226 251 244 219 201 181 183 193 184 186 194 191 193 192 190 192 190 194
315 312 309 307 308 312 312 310 311 319 309 288 308 311 241 243 247 320 314 296 274 224 226 242 221 240 255 261 261 239 136 124 260 278 228 200 152 158 225 174 170 229 255 255 317 303 170 216 241 237 228 239 255 266 19 4 346 338 311 324 312 287 293 292 258 160 149 155 242 216 211 249 257 225 203 189 189 200 192 189 192 188 190 194 194 192 187 186
312 308 308 305 309 313 310 313 322 320 296 267 254 222 262 307 338 336 332 268 290 249 220 233 225 241 257 269 254 214 147 171 216 268 219 180 163 178 171 197 214 242 269 244 233 207 194 232 242 236 213 167 315 340 8 350 329 303 279 72 285 286 334 297 295 117 153 187 218 193 196 269 296 223 202 204 199 200 193 191 194 188 187 193 197 190 182 185
308 306 305 303 309 308 312 331 339 338 329 284 259 251 312 325 328 338 343 199 285 273 230 213 204 218 240 262 230 178 168 190 182 240 205 171 164 171 167 212 230 258 247 222 214 206 225 244 230 198 120 90 11 346 355 339 310 289 215 169 241 263 245 246 246 106 147 241 242 124 73 318 320 155 202 216 219 218 191 184 199 205 193 188 191 189 186 189
306 303 300 301 305 303 323 358 31 1 339 286 272 317 335 317 302 313 341 46 296 284 258 204 189 236 239 238 199 171 159 207 197 196 188 180 172 154 203 222 207 252 260 237 202 202 241 251 190 116 82 87 78 339 318 275 327 316 257 223 236 225 220 74 101 106 116 269 254 134 82 302 313 296 209 202 213 224 190 174 206 215 193 174 181 189 193 195
303 296 293 294 296 311 352 71 23 351 319 279 315 336 336 322 291 271 113 48 316 278 322 155 160 218 227 198 173 142 86 267 229 179 179 195 191 163 228 266 237 247 269 277 216 184 259 284 97 129 152 84 64 337 260 148 78 342 256 249 278 284 14 57 99 111 147 237 252 158 141 255 317 286 227 196 194 220 200 183 211 212 191 184 186 187 190 194
295 286 282 274 273 251 162 208 336 336 280 312 326 331 339 343 285 229 98 36 312 227 154 192 152 180 198 180 152 100 98 252 253 183 191 198 192 147 203 262 320 276 278 6 4 288 274 359 52 105 123 80 55 308 252 142 94 284 247 251 332 342 344 6 106 135 212 234 305 360 114 129 279 261 240 83 74 255 254 220 225 218 203 192 186 191 194 194
286 276 268 252 254 240 240 293 318 327 327 328 329 333 347 349 327 159 95 62 284 164 168 210 196 187 196 162 133 120 205 197 123 243 224 195 189 112 188 244 254 269 282 75 332 276 244 244 171 140 92 78 156 239 240 136 96 259 259 299 323 313 302 286 254 259 279 20 336 317 70 92 276 292 1 50 54 280 276 271 262 233 213 194 188 197 202 200
277 269 252 237 247 252 269 291 304 330 339 340 340 337 341 343 352 79 84 101 148 263 217 133 129 219 197 90 140 185 210 173 164 238 225 188 209 138 180 230 212 270 289 131 224 267 252 236 194 144 98 146 219 245 236 155 224 255 285 324 319 311 292 272 219 190 23 45 262 273 30 106 323 328 352 34 334 262 256 255 250 227 211 199 195 198 205 207
280 262 240 226 218 234 286 285 293 342 347 347 338 328 333 352 40 71 33 75 168 234 231 100 201 176 134 128 232 219 194 200 208 211 116 176 244 202 193 235 122 328 316 10 266 269 270 258 188 153 173 177 207 260 255 240 248 257 337 350 330 328 334 330 112 101 63 353 254 283 44 92 58 340 335 330 266 243 211 217 223 196 199 213 215 206 205 206
291 268 245 228 209 221 270 249 337 346 347 345 332 327 349 19 67 89 88 174 172 232 186 210 221 151 149 175 221 226 198 218 205 157 191 222 340 351 347 347 24 32 350 343 317 295 310 319 180 170 172 134 131 278 322 359 332 32 54 43 11 334 354 17 6 45 82 276 262 77 70 71 72 324 317 326 327 341 127 142 116 118 143 257 267 257 230 230
302 283 261 242 234 237 220 199 333 340 343 344 340 352 56 49 43 145 209 4 35 206 197 208 209 179 181 190 211 216 186 204 204 175 185 196 198 221 194 197 158 45 344 300 310 326 340 350 14 16 8 94 101 273 322 357 10 51 65 58 55 354 4 18 349 17 109 253 256 136 84 70 90 253 327 345 359 17 44 66 68 57 36 21 15 19 12 346
309 294 279 255 248 247 237 247 300 324 336 344 355 50 79 80 221 225 215 278 244 196 188 186 191 191 175 174 230 222 185 208 211 189 176 164 195 251 277 205 157 105 241 252 10 4 348 341 11 16 338 29 90 271 318 332 351 35 75 83 91 90 40 353 300 357 341 274 274 93 90 93 205 338 341 356 12 23 41 53 57 52 41 31 24 24 20 18
324 311 293 268 258 254 249 257 281 308 329 344 25 75 73 118 239 261 240 250 234 204 204 173 177 188 174 181 219 197 178 233 199 175 167 136 177 255 333 317 145 131 148 54 45 80 52 323 344 16 321 330 356 217 184 185 333 338 163 128 117 147 131 207 231 161 251 272 300 35 78 116 172 240 301 346 22 30 38 40 43 44 36 27 17 18 16 11
338 324 307 286 271 260 247 251 269 291 320 359 59 76 120 204 254 279 265 272 287 319 310 284 147 171 203 222 231 173 157 215 183 156 167 150 152 203 83 20 334 123 107 74 312 115 87 250 267 297 271 14 351 272 200 89 360 284 163 92 89 190 147 171 202 172 191 264 352 16 55 119 147 174 298 356 29 32 29 22 24 26 22 22 13 7 9 3
328 318 313 291 275 263 245 249 254 251 280 61 70 81 178 220 239 239 266 297 322 351 346 350 54 78 303 299 289 192 116 156 152 123 167 138 72 17 32 16 2 45 106 118 12 11 45 274 279 320 345 24 355 314 345 51 345 296 349 332 258 192 133 123 287 346 62 77 61 109 125 200 166 113 346 7 29 27 23 15 15 14 12 21 13 358 355 354
311 304 299 280 270 258 240 242 221 199 127 76 100 193 225 235 235 242 280 326 306 10 45 18 8 41 338 312 272 219 48 56 125 92 303 132 44 345 342 23 20 22 126 135 95 143 123 290 293 345 357 341 337 341 26 59 82 23 320 264 272 31 88 95 56 359 33 64 244 150 125 158 247 360 341 359 21 16 4 357 353 353 6 13 6 356 349 344
309 293 286 277 256 228 217 206 176 154 88 66 120 241 249 251 254 258 288 5 339 29 61 43 351 52 23 336 302 340 44 19 104 88 346 92 54 331 343 34 22 1 5 85 76 160 100 321 292 353 11 326 333 11 12 356 29 46 292 264 62 41 2 27 55 41 16 303 285 38 76 119 182 205 289 340 2 344 335 346 347 347 6 11 357 348 343 343
326 318 306 283 166 166 176 169 155 111 67 66 223 248 256 268 270 270 323 30 28 54 64 36 355 48 34 26 351 353 40 54 134 125 102 69 89 296 359 33 8 358 22 67 78 288 64 62 279 314 358 326 341 37 15 335 347 5 350 355 53 131 166 261 235 132 152 231 233 35 23 249 220 216 203 219 251 270 309 340 336 333 358 14 351 333 336 344
355 86 316 226 146 152 158 154 131 59 76 173 217 245 285 296 284 282 351 66 68 76 77 6 38 28 360 28 19 340 15 46 20 75 81 52 109 226 359 41 158 8 51 72 73 340 44 72 270 298 342 353 335 360 356 321 317 335 349 339 336 2 80 5 341 100 129 144 153 149 297 264 243 219 191 203 225 227 215 350 331 326 351 2 339 326 334 342
43 43 300 171 148 149 146 140 91 79 148 239 234 248 280 275 280 291 317 73 81 109 118 35 50 64 23 25 21 338 351 37 29 49 57 54 120 154 318 42 126 72 66 62 49 46 43 75 256 301 338 345 265 270 302 298 285 269 260 292 320 47 78 66 342 314 72 111 151 160 206 262 252 197 186 201 209 202 154 58 351 332 347 346 326 323 331 333
82 20 242 164 155 152 135 108 282 177 194 251 229 250 281 275 269 290 339 35 55 37 24 34 33 57 56 38 46 16 14 25 33 55 60 63 102 125 299 33 61 71 82 54 7 49 147 104 74 295 286 264 265 272 283 300 308 136 152 339 25 85 90 108 216 270 30 49 66 119 139 264 258 194 181 199 190 165 123 91 30 328 327 325 315 319 327 324
140 285 195 164 162 151 110 23 288 271 254 249 249 262 269 262 252 228 48 44 57 34 36 45 33 52 49 18 46 44 28 24 44 83 123 77 66 138 233 61 63 72 76 48 323 313 7 78 50 309 296 293 296 303 294 22 45 50 351 343 349 340 89 143 170 160 113 16 62 78 49 269 269 197 150 165 156 136 129 126 99 336 312 314 313 318 326 324
228 277 177 167 169 153 95 226 243 278 265 268 279 274 267 258 244 170 86 65 80 74 64 39 16 56 250 347 48 59 62 74 47 50 110 111 116 219 144 89 93 91 85 167 195 324 319 56 67 38 350 336 342 355 346 351 24 22 306 312 316 325 53 112 96 64 59 224 149 118 224 254 280 36 77 43 44 92 235 147 84 355 322 317 316 319 325 325
299 308 10 176 178 162 116 198 214 296 282 290 291 281 280 272 274 108 109 100 102 111 110 298 352 32 330 12 33 7 56 126 188 344 41 94 112 271 84 91 100 99 128 161 142 103 128 133 100 104 99 323 317 319 304 314 332 318 311 329 334 338 6 36 32 47 337 269 115 122 203 254 321 17 22 350 339 328 321 328 336 330 319 309 313 323 324 321
25 360 354 346 205 260 256 245 290 280 273 293 290 283 275 215 238 24 62 63 41 93 109 212 357 23 13 40 45 12 10 17 171 51 39 55 33 315 19 89 92 108 144 141 118 92 91 82 121 138 155 190 210 233 242 255 299 314 341 359 357 355 33 68 73 76 229 238 62 163 204 217 342 343 339 326 321 319 317 320 320 316 308 305 313 321 319 315
61 5 18 21 297 291 299 298 293 249 257 276 276 289 306 95 44 2 11 32 135 81 60 11 32 46 42 53 52 11 360 1 19 48 38 43 38 329 25 83 96 136 145 129 110 97 80 8 219 155 183 215 212 233 259 266 289 341 14 21 22 37 62 72 71 116 162 98 9 282 245 126 266 289 319 318 317 322 308 303 308 301 294 308 320 327 326 323
24 329 30 32 294 278 326 299 280 274 273 258 241 269 277 173 148 195 327 346 141 88 65 357 358 70 123 113 101 35 8 23 26 12 347 355 9 358 12 32 9 345 73 82 62 95 103 286 255 183 231 262 239 250 279 293 43 52 39 33 41 52 65 74 75 88 106 117 221 249 185 135 224 280 321 318 320 322 287 279 298 299 300 318 330 334 333 327
11 344 347 8 321 242 261 271 277 291 283 250 233 266 243 170 140 167 121 79 38 28 89 75 11 44 100 107 108 80 352 50 56 347 337 4 12 20 17 353 331 343 29 72 34 58 100 226 263 208 317 314 308 302 317 356 67 63 38 28 44 57 64 73 71 61 96 142 203 189 125 144 237 286 303 303 314 310 286 299 320 315 309 320 329 331 330 325
3 315 326 345 309 264 260 281 295 308 313 314 301 283 262 95 77 89 90 102 118 347 54 94 64 50 45 60 84 75 10 136 134 129 107 59 17 22 32 278 308 340 5 61 34 15 72 285 292 67 48 323 309 319 353 66 89 71 42 26 35 50 52 53 36 30 75 156 302 38 89 196 279 294 292 297 319 332 328 326 323 306 293 308 327 328 325 323
329 296 315 325 294 297 314 326 323 333 352 4 335 305 300 106 138 134 70 76 116 113 114 131 97 65 49 58 67 45 24 113 131 144 130 124 164 194 215 224 250 346 344 12 353 7 65 314 332 60 52 303 296 325 353 88 96 69 41 16 16 41 44 31 14 17 56 308 344 22 40 269 277 297 307 313 329 338 326 314 310 305 299 307 324 325 320 316
346 318 329 299 257 313 346 332 330 359 2 337 326 320 305 174 164 128 89 46 64 82 102 120 102 82 72 63 41 356 333 109 142 182 163 160 198 209 218 239 248 234 222 196 284 286 109 97 349 68 58 284 281 311 333 60 82 45 351 331 1 31 17 7 9 354 352 106 109 146 231 245 263 307 328 328 327 323 315 312 310 308 307 311 317 319 315 310